Location: Beutels
(47.8767°N, 9.8584°E)
Time: 17:24:44
(UTC+00:00)

Cosmos 2278 - Pass Details

Date: 19 May 2025
Orbit: 839 x 850 km, 71.1° (Epoch: 17 June)

Event Time Altitude Azimuth Distance (km) Brightness Sun altitude
Rises 23:07:30 0° 328° (NNW) 3,404 7.9 -22.1°
Reaches altitude 10° 23:10:01 10° 323° (NW) 2,465 6.9 -22.1°
Maximum altitude 23:15:25 49° 251° (WSW) 1,075 4.1 -22.1°
Enters shadow 23:16:34 43° 215° (SW) 1,173 4.0 -22.1°
